Погода Туапсе

Погода Туапсе : погода сейчас, прогноз погоды и архив. Всё, что Вы хотите узнать о погоде Туапсе!

Хотите узнать прогноз погоды Туапсе? Тогда Вам сюда: Погода Туапсе

Поиск расширенной информации на нашем сайте:

Другие новости

Новости СМИ2

Главная страница сайта

Новости сайта

02.10.2013

Напоминаем, что на нашем новом сайте вы можете получить высокодетализированные прогнозы погоды по пунктам России, СНГ и мира (включающие важные для авиации метеовеличины, такие как направление и скорость ветра, видимость, явления погоды, количество и форма облачности, нижняя и верхняя граница облачности), а также ознакомиться с разнообразными материалами по авиационной метеорологии и подборкой полезных ссылок на эту тему.

Сайт Метеоцентр.Азия посвящён разработке технологий оптимизации авиаметеорологического обслуживания, включая проектирование и перспективное создание нескольких автоматизированных авиаметеорологических систем:
- система выпуска высокодетальных прогностических карт явлений погоды для нижнего воздушного пространства по России и ближнему зарубежью;
- система верификации прогнозов TAF (выпускаемых синоптиками официальных АМСГ РФ и ближнего зарубежья) и AUTOTAF (выпускаемых сайтом Метеоцентр.Азия) - выявление ошибок, онлайн-сопоставление с фактической погодой METAR, автоматическое внесение коррективов в прогнозы при резком отклонении фактической погоды от прогноза, подсчёт оправдываемости прогнозов по элементам и в целом;
- система обработки, анализа и отображения авиаметеорологической информации для применения провайдерами метеорологической информации.


Погода Туапсе - сегодня

Время (UTC), дата Ветер
(°,м/с) 
Видим.   Явления Облачность Т
(°С)
Тd
(°С)
f(%) Тe
(°С)
Pmin
(гПа)
dP
(гПа)
Po
(мм)
O2
(г/м3)
Тmin Tmax R s Состояние
почвы
06 17.02.17 040 (СВ) 3{14}  20000 м    1/1 1000 м 
[Sc]
-0.7 -16.7 29 -3  1027.6  1.1  765  310           
09 17.02.17 050 (СВ) 2{10}  20000 м    3/3 1000 м 
[Cu Sc]
+3.9 -14.7 24 +3  1028.5  1.1  766  305           
12 17.02.17 230 (ЮЗ) 20000 м  в посл. час крупа{ливн. осадки}  8/6 1000 м кучево-дожд., средняя 
[Cb cap|Ac trans]
+5.3 -5.1 47 +6  1028.2  -0.3  765  303           
15 17.02.17 200 (Ю) 20000 м    8/6 1000 м кучево-дожд., средняя 
[Cb cap|Ac trans]
+3.7 -3.9 58 +2  1029  0.7  766  305    +7.7  0.0     
18 17.02.17 210 (ЮЗ) 4{13}  10 км    9/8 1000 м кучево-дожд., средняя 
[Cb cap|Ac trans]
+2.9 -3.7 62 +1  1030.2  1.2  767  306           
21 17.02.17 200 (Ю) 4-10{13}  10 км    8/6 1000 м кучево-дожд., средняя 
[Cb cap|Ac trans]
+2.6 -4.8 58 +1  1030.3  767  307           
00 18.02.17 120 (ЮВ) 5{13}  10 км    9/8 1000 м кучево-дожд., средняя 
[Cb cap|Ac trans]
+2.6 -5.3 56 1029.4  -0.8  766  306           
03 18.02.17 130 (ЮВ) 5-10{12}  10 км    8/6 1000 м кучево-дожд., средняя 
[Cb cap|Ac trans]
+2.7 -4.1 61 1028.5  -0.9  766  306  +2.4         
06 18.02.17 120 (ЮВ) 5{10}  20000 м    10/3 1000 м верхняя 
[Sc|Ci fib]
+3.3 -6.1 50 +1  1028.2  -0.2  765  305  +2.3         
09 18.02.17 140 (ЮВ) 4-10{11}  20000 м    10/6 1000 м средняя, верхняя 
[Cu Sc|Ac trans|Ci fib]
+4.2 -3.4 58 +2  1027.7  -0.5  765  304           
12 18.02.17 150 (ЮВ) 4{12}  20000 м    10/1 1000 м верхняя 
[Cu med, cong|Cs]
+5.3 -4.2 50 +4  1026  -1.7  764  302           
15 18.02.17 160 (Ю) 20000 м    6/3 1000 м средняя, верхняя 
[Sc|Ac trans|Ci fib]
+4.9 -5 49 +4  1026.1  764  303    +5.8       
18 18.02.17 110 (В) 10 км    3/0 средняя 
[Ac trans]
+4.1 -5.7 49 +4  1026.6  0.5  764  304           
21 18.02.17 110 (В) 10 км    ясно 
+4.1 -5.1 51 +4  1027.4  0.8  765  304           
00 19.02.17 130 (ЮВ) 10 км    ясно 
+5.6 -6.6 41 +5  1027.5  0.1  765  303           
03 19.02.17 150 (ЮВ) 4{10}  10 км    10/0 средняя, верхняя 
[Ac trans|Ci fib]
+6.6 -4 47 +5  1028.5  1.1  766  302  +3.9         
06 19.02.17 140 (ЮВ) 20000 м    10/0 средняя, верхняя 
[Ac trans|Ci sp]
+7.4 -4.8 42 +7  1030.1  1.5  767  301           
09 19.02.17 150 (ЮВ) 20000 м    8/0 средняя, верхняя 
[Ac trans|Ci sp]
+8.8 -2.6 45 +8  1030.2  0.2  767  300           
12 19.02.17 160 (Ю) 20000 м    10/0 верхняя 
[Cc]
+9.1 -1 49 +9  1029.4  -0.8  766  299           
15 19.02.17 210 (ЮЗ) 20000 м    10/0 средняя, верхняя 
[Ac trans|Ci sp]
+6.9 +1.8 70 +8  1029.1  -0.4  766  301    +9.9       
18 19.02.17 020 (С) 10 км    10/6 1000 м средняя 
[Sc|Ac As]
+6.3 +1.2 70 +7  1028.5  -0.6  766  301           
21 19.02.17 030 (СВ) 10 км    8/6 1000 м средняя, верхняя 
[Sc|Ac trans|Ci sp]
+5.7 -5 46 +7  1027.8  -0.7  765  303           
00 20.02.17 010 (С) 10 км    3/3 1000 м 
[Sc]
+5.4 -8.1 37 +6  1027.1  -0.7  765  303           
03 20.02.17 030 (СВ) 10 км    4/4 1000 м 
[Cu Sc]
+3.3 -7.1 46 +3  1026.1  -1.1  764  305  +3.3         
06 20.02.17 040 (СВ) 20000 м    9/0 верхняя 
[Ci]
+6.8 -6.5 38 +8  1025.5  -0.4  763  301  +2.6         
Время (UTC), дата Ветер
(°,м/с) 
Видим.   Явления Облачность Т
(°С)
Тd
(°С)
f(%) Тe
(°С)
Pmin
(гПа)
dP
(гПа)
Po
(мм)
O2
(г/м3)
Тmin Tmax R s Состояние
почвы

Для получения пояснительной информации подведите курсор к названию столбца.

ПОГОДА Туапсе - архив

Всё, что Вы хотите узнать о погоде Туапсе - удобно и подробно!

Выберите нужную дату (начиная с 1 января 2015* года) и нажмите кнопку "Найти".
Будут отображены архивные сводки погоды по пункту Туапсе, начиная с указанной даты.


Отображать данные в формате CSV (для использования в таблицах Excel)


Внимание! Наш архив погоды предназначен исключительно для личного некоммерческого использования в познавательных целях. Если Вам необходимы официальные справки о состоянии погоды (для производственных, юридических, коммерческих и т.п. целей), обращайтесь в органы Росгидромета.

*Примечание: данная дата относится к архиву по метеостанциям СССР (Россия, СНГ, Балтия).
Архив по метеостанциям Зарубежной Европы и Азии (кроме Китая) хранится 10 дней, по другим регионам земного шара (Китай, Африка, Америка, Австралия, Океания) - 1 день.

Туапсе - район местоположения метеостанции


Название, широта, долгота, высота метеостанции:
Туапсе 44.1°ш. 39.1°д. 61 м над ур. моря [Российская Федерация]

Дополнительная информация

В oтличие oт бoльшинства пoгoдных сайтoв мы публикуем пoдрoбную метеoинфoрмацию в детальнoм прoфессиoнальнoм фoрмате.

Характеристики температуры и влажнoсти вoздуха измеряются на высoте 2 м в тени вдали oт зданий и деревьев.
Скoрoсть ветра измеряется на высoте 10 м (на урoвне рoста челoвека скoрoсть ветра ниже в 1.5-2 раза). Если метеoстанция нахoдится в гoрoде или в лесу, тo скoрoсть ветра занижена на 2-4 м/с пo сравнению с oткрытым местoм. Скoрoсть ветра над акватoриями крупных рек и oзёр, а также на вершинах хoлмoв на 2-5 м/с выше, чем в oбычных услoвиях.
Атмoсфернoе давление в разных тoчках местнoсти мoжет значительнo oтличаться oт давления на метеoстанции, в зависимoсти oт услoвий рельефа (при пoдъёме на 10 м давление пoнижается примернo на 1 мм рт.ст.).